This is the latest recevied weather packets stored in our database for station/object OK2JCZ-6. If no packets are shown the sender has not sent any weather packets the latest 1 day(s).
| Time | Temp. | Humidity | Pressure | Rain* | Wind** | Luminosity | Snow |
|---|---|---|---|---|---|---|---|
| 1778033080 | 10.56° C | 61% | 1006.4 hPa | 0 mm | - | - | - |
| 1778032780 | 10.56° C | 61% | 1006.5 hPa | 0 mm | - | - | - |
| 1778032480 | 10.56° C | 61% | 1006.4 hPa | 0 mm | - | - | - |
| 1778032180 | 10.56° C | 60% | 1006.3 hPa | 0 mm | - | - | - |
| 1778031880 | 10.56° C | 59% | 1006.2 hPa | 0 mm | - | - | - |
| 1778031280 | 10.56° C | 59% | 1006.2 hPa | 0 mm | - | - | - |
| 1778030980 | 10.56° C | 60% | 1006.1 hPa | 0 mm | - | - | - |
| 1778030080 | 11.11° C | 59% | 1005.6 hPa | 0 mm | - | - | - |
| 1778029780 | 11.11° C | 60% | 1005.4 hPa | 0 mm | - | - | - |
| 1778028580 | 11.67° C | 59% | 1005.6 hPa | 0 mm | - | - | - |
| 1778028280 | 11.67° C | 58% | 1005.6 hPa | 0 mm | - | - | - |
| 1778027980 | 11.67° C | 58% | 1005.6 hPa | 0 mm | - | - | - |
| 1778027680 | 11.67° C | 56% | 1005.8 hPa | 0 mm | - | - | - |
| 1778025880 | 12.22° C | 54% | 1005.5 hPa | 0 mm | - | - | - |
| 1778024980 | 12.22° C | 54% | 1005.3 hPa | 0 mm | - | - | - |
| 1778024680 | 12.22° C | 55% | 1005.2 hPa | 0 mm | - | - | - |
| 1778023180 | 12.22° C | 55% | 1005.3 hPa | 0 mm | - | - | - |
| 1778019880 | 12.22° C | 56% | 1005 hPa | 0 mm | - | - | - |
| 1778019280 | 12.22° C | 55% | 1005 hPa | 0 mm | - | - | - |
| 1778018380 | 12.22° C | 54% | 1004.8 hPa | 0 mm | - | - | - |
| 1778018080 | 12.22° C | 54% | 1004.7 hPa | 0 mm | - | - | - |
| 1778016880 | 12.22° C | 53% | 1004.6 hPa | 0 mm | - | - | - |
| 1778016580 | 12.22° C | 54% | 1004.5 hPa | 0 mm | - | - | - |
| 1778015380 | 12.22° C | 43% | 1004.7 hPa | 0 mm | - | - | - |
| 1778014780 | 12.78° C | 52% | 1004.7 hPa | 0 mm | - | - | - |
* Rain latest hour (hover to see other rain measurements)
** Current wind speed in m/s (hover to see current wind gust speed)